User: anonymous   Login
Location: Ostrava
(49.8330°N, 18.2830°E)
Time: 17:31:18
(UTC+01:00)
Language:

Cosmos 1400 Rocket - Orbit

View from above orbital plane
View from above orbital plane
View from above satellite
View from above satellite

Ground track
Ground track

The orbit data is extracted from the following two-line orbital elements,

1 13403U 82079B   15061.55996955  .00003592  00000-0  24904-3 0  9994
2 13403 081.1717 147.8449 0036214 154.4297 205.8727 15.04838912770650
Epoch (UTC): 02 March 2015 13:26:21
Eccentricity: 0.0036214
inclination: 81.1717°
perigee height: 527 km
apogee height: 577 km
right ascension of ascending node: 147.8449°
argument of perigee: 154.4297°
revolutions per day: 15.04838912
mean anomaly at epoch: 205.8727°
orbit number at epoch: 77065

The dashed part of the orbit path shows where the satellite is in the earth's shadow,  

DLR